Vertical_Velocity
-0 0 0 -0 1 1 2 2 1 1 1 -1 5 2 1 2 2 -1 2 -0 -1 0 1 0 1 1 -1 1 1 2 1 3 -0 3 1 5 0 0 3 -0 2 -2 1 -1 0 1 1
-2 -1 2 2 -1 -0 0 -0 0 0 1 2 1 0 -1 -1 -0 -1 0 -2 1 1 2 1 0 1 1 1 2 1 0 2 1 2 -0 2 2 4 3 0 2 -2 -1 1 1 1 -1
-0 -3 -2 1 1 -0 -1 1 0 2 1 1 -0 -2 2 -3 0 -0 0 -0 2 1 2 2 2 1 2 1 0 -0 1 1 1 2 3 1 2 4 2 2 -0 -1 2 0 2 0 -1
1 1 -1 -2 -0 -0 0 -0 0 -1 -0 -1 -1 -1 -0 1 -1 -1 1 0 1 2 2 3 2 2 0 -0 -0 -0 2 2 -0 2 4 -2 3 2 2 1 1 0 1 3 1 2 2
1 1 -0 0 -0 -1 -1 -1 -1 -0 -1 -0 -0 0 -0 0 0 0 2 0 1 0 1 1 0 0 -0 1 1 1 2 1 2 2 2 2 4 1 2 2 2 -1 4 2 2 1 2
-3 -2 -1 -0 0 0 -1 -2 -1 -0 -0 -0 -0 -0 0 0 1 1 0 1 2 2 1 2 2 1 1 0 1 2 1 1 1 2 2 1 3 2 1 0 1 2 0 0 1 0 3
-0 -1 -3 -2 -1 -0 0 -1 -2 1 -0 0 1 -0 0 -0 2 2 1 1 2 1 2 2 1 -0 1 1 1 0 1 3 3 1 1 1 -1 -4 3 6 -2 -1 -0 -3 -0 0 -0
-4 2 -1 -2 -1 -1 -0 0 -2 -1 -1 -1 1 1 -1 -0 2 1 0 1 2 1 1 2 2 2 1 1 1 -0 2 2 1 0 2 1 -7 4 3 -1 0 -0 1 -0 -1 -1 -1
-0 -1 1 1 0 -0 -0 0 -1 -0 -1 -1 -0 0 0 1 0 1 1 0 1 2 2 2 2 1 2 2 2 2 2 2 2 2 2 1 2 1 1 2 0 1 -2 2 6 1 -1
2 -2 -2 -4 0 -0 -0 -0 -0 -0 0 -0 -0 0 1 0 1 1 1 2 1 1 0 0 1 -2 1 2 3 4 2 3 2 2 2 -0 -2 1 3 -1 2 2 -1 3 3 3 4
-1 -1 -1 -2 1 0 1 1 0 -1 -2 0 0 0 1 2 -1 1 2 2 3 2 3 0 2 1 2 3 1 -1 2 4 3 1 -0 1 2 1 1 2 1 1 2 0 1 3 2
-0 -1 -0 -2 0 1 -0 -0 -1 1 -1 -0 1 1 0 1 1 2 2 2 3 3 -2 -0 1 1 1 2 1 1 1 3 2 1 0 1 2 1 1 2 1 0 1 0 0 1 4
0 -3 -1 -2 0 -0 1 -2 -2 1 1 -1 1 1 1 2 3 3 5 2 2 2 -2 1 -2 0 1 -0 1 1 0 1 -0 2 0 2 1 -0 1 2 1 1 0 3 6 6 -2
-1 -2 -1 -0 -1 -0 -0 3 -1 -1 -0 -1 3 -2 1 2 3 4 5 6 1 -1 1 -1 -2 2 1 1 1 -0 0 -0 0 -0 0 1 5 2 0 1 0 1 2 -1 -1 -1 1
-1 0 -2 -2 1 -2 2 1 -0 -1 1 1 1 3 -1 2 2 5 6 3 0 -1 -0 -0 3 5 1 1 1 2 0 0 0 -0 0 1 -0 1 0 1 2 1 1 -2 -0 -3 4
-2 0 -1 -2 -1 -3 2 0 3 1 0 0 1 2 -0 -2 3 5 7 1 1 1 1 3 3 2 2 1 2 2 1 -1 -1 -0 0 -1 0 1 0 2 1 1 -1 1 -2 2 0
-2 -2 -1 3 -2 -1 -1 0 0 -1 1 0 -1 3 0 1 1 5 -0 -0 -1 -0 0 -0 1 1 -0 -1 2 0 0 -0 1 0 0 -0 1 1 3 -0 -1 1 1 -1 -1 -2 2
-1 -1 -2 -3 1 -4 -4 2 1 -1 1 2 -1 1 0 -0 1 0 1 1 -0 0 0 -0 1 2 1 0 0 1 -0 -0 -0 -0 -1 -1 -2 1 -2 -2 -1 -1 -1 1 3 3 -1
0 -2 -1 -2 -1 -1 -1 1 2 2 0 0 2 1 1 3 1 -1 1 -0 0 1 -0 1 0 0 0 -0 -1 1 0 -1 -0 -1 -2 -1 -0 -1 -1 -1 -0 0 -1 0 0 0 -2
-1 -1 0 -2 -2 1 -2 -3 -1 -1 0 3 1 2 2 0 1 2 2 -1 -0 0 -0 -1 0 1 0 -0 -1 -1 -1 -0 0 -0 -1 -0 -2 -2 1 1 -1 -2 -1 -1 -1 -2 -1
-0 -0 -0 1 -2 0 -1 -1 -3 1 1 4 2 1 0 -2 -1 -0 2 0 1 -2 -0 0 -0 0 -0 0 0 -0 0 0 -0 -1 -1 -1 -1 -0 -0 -1 -1 -0 -2 -2 -2 -1 0
-1 -1 -2 -1 -1 -0 2 -1 -3 1 0 3 0 2 1 1 0 -1 0 -0 -0 -0 -1 1 -0 -2 -1 -1 -2 -1 1 0 -0 -0 -0 0 -1 -1 -1 -0 -1 -2 -2 0 1 0 1
0 -1 -0 0 0 -1 -2 -1 1 -1 -2 -1 -0 2 2 1 0 0 -0 1 -1 -0 -0 -1 2 -1 -1 -0 0 -1 -1 -0 1 1 1 -1 -1 -1 2 -1 -1 1 -1 -1 -1 -1 -1
-1 -1 -0 -0 -0 0 -1 -3 -1 -1 2 1 1 3 3 1 -0 0 0 2 0 -1 1 -1 -1 0 -1 -1 -0 0 -1 -0 -1 -1 -1 0 -1 -1 -0 -0 3 -2 -1 -1 -1 -1 -1
0 -2 -3 -1 -0 -2 -1 0 -0 -3 -2 -2 -3 1 3 2 0 -1 1 0 1 -0 -1 -1 -1 -0 -0 -1 -1 -1 -1 -1 0 -1 0 -0 -0 -2 -1 -1 -0 -0 -0 -1 -1 -1 -2
-1 -2 -2 0 -1 -0 -2 -3 -1 -2 -6 -5 -3 1 0 -1 -1 0 -0 -0 -0 0 0 -1 -1 -1 -2 0 -2 -1 1 0 -0 -1 -1 -0 -1 -2 -1 0 1 -2 -1 -0 0 -6 -1
-0 -1 -3 -3 -3 -3 -1 -1 -3 -3 -1 -1 -2 -3 -1 0 -0 1 -0 -1 -1 1 1 -1 0 -1 -0 0 -1 -1 -1 -1 0 0 -1 -1 -1 -1 0 -0 -1 -0 -1 -1 -0 -4 -1
-0 -1 -2 -3 -3 -4 -4 -2 -0 -3 -2 -1 -2 -2 -1 -1 -1 0 1 0 -0 -1 -1 0 0 0 -1 0 -0 -2 -0 -1 -1 -1 -1 -0 -1 -1 -1 -1 0 -2 -2 -0 -0 -0 -1
1 1 -1 -3 -3 -1 -1 -0 -1 -2 -2 -1 -1 -1 -1 1 -1 1 1 1 1 -1 -2 -0 -0 -1 -2 -1 -2 -1 -2 -0 0 -0 -0 -1 -2 -1 -0 -0 -0 -2 -0 -1 -1 -1 -1
Height
3093 3092 3090 3089 3087 3086 3084 3083 3082 3082 3081 3081 3079 3078 3077 3075 3073 3072 3073 3074 3076 3077 3078 3079 3081 3083 3085 3087 3088 3088 3089 3090 3092 3095 3097 3100 3102 3104 3106 3107 3109 3111 3114 3115 3116 3118 3119
3090 3088 3087 3085 3084 3082 3081 3080 3079 3078 3078 3078 3077 3075 3075 3073 3072 3072 3072 3073 3073 3074 3076 3077 3079 3081 3083 3086 3085 3086 3087 3088 3090 3093 3096 3098 3100 3103 3104 3106 3108 3109 3111 3112 3114 3115 3116
3086 3084 3083 3082 3080 3078 3077 3077 3076 3075 3074 3074 3073 3073 3072 3071 3071 3071 3070 3070 3071 3072 3074 3075 3076 3078 3081 3083 3082 3084 3086 3087 3089 3092 3094 3096 3098 3101 3102 3104 3105 3107 3109 3109 3111 3112 3113
3083 3081 3079 3078 3076 3075 3073 3072 3072 3071 3070 3070 3070 3069 3069 3068 3068 3068 3069 3069 3069 3070 3071 3073 3075 3076 3078 3079 3081 3082 3083 3085 3088 3090 3091 3093 3096 3098 3100 3102 3104 3105 3106 3107 3107 3108 3109
3079 3077 3075 3073 3072 3070 3069 3068 3067 3066 3066 3066 3066 3066 3066 3066 3066 3066 3066 3067 3067 3069 3069 3071 3073 3074 3075 3076 3078 3079 3081 3083 3086 3088 3089 3091 3094 3095 3098 3100 3102 3102 3104 3104 3106 3106 3108
3076 3073 3070 3068 3067 3066 3064 3063 3062 3061 3061 3061 3061 3062 3062 3063 3063 3064 3064 3064 3065 3066 3067 3069 3070 3074 3072 3073 3074 3075 3078 3080 3083 3085 3087 3089 3090 3092 3094 3096 3099 3099 3100 3101 3103 3105 3105
3071 3068 3065 3062 3061 3060 3059 3057 3057 3056 3056 3056 3056 3057 3058 3059 3059 3060 3061 3062 3065 3066 3065 3066 3067 3067 3068 3069 3071 3072 3075 3078 3080 3082 3084 3086 3088 3086 3090 3093 3094 3096 3097 3099 3100 3102 3103
3066 3064 3060 3057 3055 3053 3052 3051 3051 3050 3050 3050 3051 3051 3053 3054 3055 3056 3057 3059 3060 3062 3062 3062 3063 3064 3065 3066 3068 3069 3072 3075 3076 3078 3081 3085 3082 3085 3087 3089 3090 3091 3092 3094 3095 3096 3099
3062 3060 3058 3054 3051 3048 3046 3045 3044 3044 3044 3044 3045 3046 3046 3048 3050 3051 3053 3055 3056 3058 3059 3059 3059 3060 3062 3065 3065 3067 3070 3071 3073 3075 3077 3080 3080 3080 3082 3084 3086 3086 3087 3090 3093 3093 3094
3060 3057 3055 3050 3047 3044 3042 3040 3037 3037 3037 3038 3039 3040 3040 3042 3046 3046 3048 3050 3053 3055 3056 3055 3054 3055 3057 3059 3062 3064 3065 3070 3070 3072 3075 3077 3075 3077 3079 3081 3083 3083 3083 3085 3086 3089 3090
3057 3054 3050 3047 3044 3040 3037 3035 3033 3031 3031 3032 3033 3035 3035 3037 3039 3041 3045 3046 3049 3052 3053 3051 3049 3050 3052 3056 3056 3057 3061 3063 3066 3069 3073 3073 3072 3072 3074 3076 3077 3079 3079 3081 3082 3083 3084
3054 3051 3047 3044 3042 3039 3035 3032 3030 3028 3027 3027 3028 3029 3030 3032 3034 3036 3039 3042 3046 3051 3046 3045 3044 3046 3049 3051 3052 3054 3057 3060 3063 3065 3067 3068 3069 3070 3071 3073 3074 3076 3077 3078 3080 3081 3079
3051 3048 3045 3041 3039 3036 3033 3030 3027 3025 3024 3023 3022 3023 3025 3026 3028 3031 3034 3039 3045 3042 3042 3042 3041 3044 3046 3048 3050 3052 3054 3056 3060 3063 3062 3064 3065 3066 3068 3070 3071 3072 3075 3076 3077 3077 3069
3049 3046 3043 3040 3036 3034 3031 3028 3025 3023 3021 3019 3019 3019 3020 3021 3023 3026 3030 3035 3035 3034 3035 3036 3039 3041 3044 3046 3048 3049 3051 3053 3056 3058 3059 3061 3063 3063 3063 3065 3066 3067 3071 3069 3065 3065 3064
3047 3044 3040 3037 3035 3032 3030 3027 3024 3021 3019 3017 3016 3016 3016 3016 3018 3021 3026 3029 3027 3029 3031 3034 3037 3039 3041 3043 3045 3047 3049 3051 3052 3054 3057 3056 3058 3059 3060 3061 3064 3064 3066 3066 3066 3065 3065
3045 3041 3038 3036 3033 3031 3028 3026 3023 3020 3017 3016 3015 3014 3013 3013 3015 3018 3023 3023 3024 3026 3028 3031 3033 3035 3037 3039 3042 3044 3045 3047 3048 3049 3051 3053 3056 3056 3057 3059 3060 3061 3062 3064 3065 3062 3056
3042 3039 3035 3033 3031 3029 3027 3024 3021 3019 3017 3016 3015 3014 3012 3012 3014 3017 3019 3021 3022 3024 3026 3030 3030 3032 3034 3035 3038 3040 3041 3043 3044 3045 3047 3049 3052 3055 3055 3055 3055 3058 3057 3059 3060 3059 3052
3039 3036 3034 3031 3028 3026 3025 3022 3020 3018 3016 3015 3014 3014 3012 3013 3015 3015 3017 3018 3020 3022 3024 3026 3027 3029 3030 3033 3035 3037 3038 3039 3041 3043 3045 3047 3049 3050 3051 3050 3051 3052 3053 3054 3055 3054 3054
3037 3034 3031 3029 3026 3023 3021 3020 3017 3015 3014 3013 3012 3012 3012 3013 3014 3014 3015 3016 3017 3020 3022 3024 3025 3027 3028 3030 3033 3033 3035 3037 3039 3041 3042 3044 3046 3048 3048 3050 3048 3048 3049 3050 3051 3050 3050
3036 3032 3029 3027 3024 3020 3018 3016 3015 3012 3011 3011 3010 3010 3011 3011 3012 3013 3013 3014 3016 3018 3019 3021 3023 3025 3026 3028 3029 3030 3032 3035 3036 3038 3039 3041 3042 3044 3044 3045 3046 3047 3047 3048 3049 3050 3048
3035 3032 3028 3025 3022 3018 3016 3013 3011 3009 3008 3009 3007 3007 3007 3007 3008 3010 3011 3013 3014 3015 3017 3019 3021 3022 3024 3026 3027 3028 3030 3032 3033 3034 3036 3038 3039 3041 3041 3041 3042 3043 3044 3044 3045 3045 3045
3035 3032 3028 3024 3021 3018 3016 3013 3010 3008 3007 3007 3006 3005 3004 3005 3007 3008 3009 3010 3012 3013 3016 3017 3018 3020 3022 3023 3025 3025 3026 3028 3029 3030 3032 3033 3034 3036 3037 3037 3037 3038 3039 3038 3039 3039 3038
3036 3033 3029 3025 3022 3018 3015 3012 3010 3007 3006 3004 3004 3004 3004 3004 3005 3008 3008 3009 3010 3012 3014 3015 3016 3017 3018 3021 3021 3022 3024 3025 3026 3027 3029 3031 3031 3033 3034 3034 3034 3035 3033 3034 3035 3035 3035
3037 3033 3030 3026 3022 3019 3016 3013 3011 3008 3007 3006 3005 3004 3003 3003 3004 3006 3006 3007 3008 3010 3011 3012 3014 3015 3017 3017 3019 3020 3021 3022 3023 3024 3026 3027 3028 3030 3031 3033 3032 3031 3030 3031 3032 3031 3031
3038 3034 3030 3027 3023 3020 3017 3014 3011 3010 3008 3008 3006 3005 3003 3002 3003 3004 3005 3005 3006 3008 3009 3010 3011 3012 3013 3015 3017 3018 3020 3021 3021 3022 3023 3024 3026 3028 3031 3031 3030 3028 3027 3028 3027 3028 3027
3038 3034 3030 3027 3023 3020 3017 3014 3012 3010 3008 3006 3005 3004 3003 3002 3002 3002 3002 3003 3004 3005 3006 3007 3008 3009 3011 3012 3014 3016 3018 3020 3021 3022 3022 3023 3025 3028 3028 3029 3026 3026 3025 3025 3024 3022 3021
3037 3033 3029 3026 3022 3019 3016 3013 3010 3008 3006 3004 3002 3001 3001 3000 2999 2999 2999 3000 3001 3001 3003 3004 3006 3007 3009 3010 3012 3014 3017 3018 3020 3020 3021 3022 3024 3025 3025 3027 3025 3023 3023 3023 3025 3025 3019
3034 3030 3025 3022 3018 3015 3011 3008 3006 3003 3001 3000 2998 2997 2997 2995 2995 2995 2995 2996 2997 2998 3000 3002 3005 3004 3006 3009 3010 3012 3014 3016 3017 3018 3019 3021 3022 3023 3024 3024 3024 3022 3022 3023 3020 3016 3014
3029 3024 3020 3015 3012 3008 3004 3002 2999 2997 2995 2993 2992 2991 2990 2991 2991 2991 2991 2992 2994 2994 2997 2998 3000 3001 3002 3005 3007 3009 3012 3013 3015 3016 3018 3020 3021 3022 3024 3021 3019 3018 3016 3015 3013 3010 3007